User: anonymous   Login
Location: Gu�tanj
(46.5431°N, 14.9692°E)
Time: 14:01:47
(UTC+00:00)
Language:

Cosmos 968 Rocket - Orbit

View from above orbital plane
View from above orbital plane
View from above satellite
View from above satellite

Ground track
Ground track

The orbit data is extracted from the following two-line orbital elements,

1 10521U 77119B   21126.46167248  .00000070  00000-0  30180-4 0  9997
2 10521  74.0262 160.0581 0021174 190.1318 169.9414 14.40821912276653
Epoch (UTC): 06 May 2021 11:04:48
Eccentricity: 0.0021174
inclination: 74.0262°
perigee height: 740 km
apogee height: 771 km
right ascension of ascending node: 160.0581°
argument of perigee: 190.1318°
revolutions per day: 14.40821912
mean anomaly at epoch: 169.9414°
orbit number at epoch: 27665

The dashed part of the orbit path shows where the satellite is in the earth's shadow,  

DLR